Overview Statistics Trail Chart Weather Telemetry Raw packets
 

This is the latest recevied weather packets stored in our database for station/object AB1AU. If no packets are shown the sender has not sent any weather packets the latest 10 day(s).

<< 6 7 8 9 10 11 12 >>
Time Temp. Humidity Pressure Rain* Wind** Luminosity Snow
1788574627 17.78° C 87% 1009.2 hPa 0 mm - 0 W/m² -
1788574322 17.78° C 87% 1009.2 hPa 0 mm - 0 W/m² -
1788574017 17.78° C 86% 1009 hPa 0 mm - 0 W/m² -
1788573712 17.78° C 86% 1009.2 hPa 0 mm - 0 W/m² -
1788573411 17.78° C 85% 1009.2 hPa 0 mm - 0 W/m² -
1788573105 18.33° C 84% 1009.4 hPa 0 mm - 0 W/m² -
1788572798 18.33° C 84% 1009.1 hPa 0 mm - 0 W/m² -
1788572494 18.33° C 83% 1009.3 hPa 0 mm - 0 W/m² -
1788572191 18.33° C 83% 1009.2 hPa 0 mm - 0 W/m² -
1788571887 18.89° C 83% 1009.4 hPa 0 mm - 0 W/m² -
1788571586 18.89° C 83% 1009.2 hPa 0 mm - 0 W/m² -
1788571283 18.89° C 82% 1009.3 hPa 0 mm - 0 W/m² -
1788570979 19.44° C 81% 1009.4 hPa 0 mm - 0 W/m² -
1788570674 19.44° C 80% 1009.5 hPa 0 mm - 0 W/m² -
1788570374 18.89° C 81% 1009.5 hPa 0 mm - 0 W/m² -
1788570070 19.44° C 81% 1009.4 hPa 0 mm - 0 W/m² -
1788569766 19.44° C 80% 1009.4 hPa 0 mm - 0 W/m² -
1788569462 19.44° C 79% 1009.4 hPa 0 mm - 0 W/m² -
1788569161 20° C 77% 1009.5 hPa 0 mm - 0 W/m² -
1788568857 20° C 76% 1009.6 hPa 0 mm - 0 W/m² -
1788568552 20.56° C 75% 1009.5 hPa 0 mm - 0 W/m² -
1788568248 20.56° C 75% 1009.4 hPa 0 mm - 0 W/m² -
1788567943 20.56° C 74% 1009.3 hPa 0 mm - 0 W/m² -
1788567639 21.11° C 73% 1009.4 hPa 0 mm - 0 W/m² -
1788567333 21.11° C 71% 1009.4 hPa 0 mm - 0 W/m² -

* Rain latest hour (hover to see other rain measurements)
** Current wind speed in m/s (hover to see current wind gust speed)